Ab-e Darah, Afghanistan

11:51 PM AFT on December 02, 2016 (GMT +0430)
Mazar-I-Sharif

Weather History for OAMS - March, 2014

Change the Weather History Date:

Wednesday, March 19, 2014

  Actual Average Record
Temperature  
Mean Temperature 63 °F -  
Max Temperature 73 °F - - ()
Min Temperature 53 °F - - ()
Degree Days  
Heating Degree Days 2    
Growing Degree Days 13 (Base 50)    
Moisture  
Dew Point 45 °F    
Average Humidity 44    
Maximum Humidity 77    
Minimum Humidity 25    
Precipitation  
Precipitation 0.00 in - - ()
Sea Level Pressure  
Sea Level Pressure 30.05 in    
Wind  
Wind Speed 12 mph ()    
Max Wind Speed 21 mph    
Max Gust Speed -    
Visibility 6.6 miles    
Events Rain    
T = Trace of Precipitation, MM = Missing Value Source: Averaged Metar Reports

Daily Weather History Graph

Daily Weather History Graph

Search for Another Location

Airport or City:

Trip Planner

Search our weather history database for the weather conditions in past years. The results will help you decide how hot, cold, wet, or windy it might be!

Date:

Astronomy

Mar. 19, 2014 Rise Set
Actual Time 6:06 AM AFT 6:11 PM AFT
Civil Twilight 5:41 AM AFT 6:37 PM AFT
Nautical Twilight 5:10 AM AFT 7:07 PM AFT
Astronomical Twilight 4:40 AM AFT 7:38 PM AFT
Moon 8:58 PM AFT (3/19) 7:20 AM AFT (3/19)
Length of Visible Light 12h 56m
Length of Day
12h 04m
Waning Gibbous, 93% of the Moon is Illuminated
Mar 19
Waning Gibbous
Mar 24
Last Quarter
Mar 30
New
Apr 7
First Quarter
Apr 15
Full

Hourly Weather History & Observations

Time (AFT) Temp. Dew Point Humidity Pressure Visibility Wind Dir Wind Speed Gust Speed Precip Events Conditions
1:20 AM 59.0 °F 44.6 °F 59% 30.12 in 6.2 mi ENE 18.4 mph - N/A   Mostly Cloudy
2:20 AM 59.0 °F 46.4 °F 63% 30.09 in 6.2 mi East 18.4 mph - N/A   Mostly Cloudy
3:20 AM 59.0 °F 44.6 °F 59% 30.06 in 6.2 mi East 18.4 mph - N/A   Mostly Cloudy
6:20 AM 53.6 °F 46.4 °F 77% 30.09 in 6.2 mi SSW 5.8 mph - N/A   Mostly Cloudy
7:20 AM 57.2 °F 46.4 °F 67% 30.09 in 6.2 mi WSW 4.6 mph - N/A   Scattered Clouds
7:30 AM 56 °F 47 °F 63% 30.12 in 6 mi WSW 4.5 mph - -   Partly Cloudy
8:20 AM 59.0 °F 46.4 °F 63% 30.09 in 6.2 mi Variable 1.2 mph - N/A   Mostly Cloudy
8:30 AM 58 °F 47 °F 57% 30.09 in 6 mi 2.2 mph - -   Mostly Cloudy
9:20 AM 62.6 °F 48.2 °F 59% 30.09 in 6.2 mi SW 3.5 mph - N/A   Scattered Clouds
9:30 AM 63 °F 47 °F 46% 30.09 in 6 mi SW 4.5 mph - -   Mostly Cloudy
10:20 AM 66.2 °F 42.8 °F 43% 30.09 in 6.2 mi East 19.6 mph - N/A   Scattered Clouds
10:30 AM 67 °F 43 °F 31% 30.06 in 6 mi East 20.1 mph - -   Scattered Clouds
11:20 AM 68.0 °F 42.8 °F 40% 30.09 in 6.2 mi East 17.3 mph - N/A   Partly Cloudy
11:30 AM 68 °F 42 °F 28% 30.06 in 6 mi East 17.9 mph - -   Scattered Clouds
12:20 PM 69.8 °F 42.8 °F 38% 30.06 in 6.2 mi East 18.4 mph - N/A   Partly Cloudy
12:30 PM 70 °F 44 °F 27% 30.03 in 6 mi East 17.9 mph - -   Scattered Clouds
1:20 PM 71.6 °F 44.6 °F 38% 30.04 in 6.2 mi ENE 19.6 mph - N/A   Partly Cloudy
1:30 PM 72 °F 44 °F 26% 30.00 in 6 mi ENE 20.1 mph - -   Scattered Clouds
2:20 PM 71.6 °F 44.6 °F 38% 30.01 in 6.2 mi East 19.6 mph - N/A   Mostly Cloudy
2:30 PM 72 °F 44 °F 25% 29.98 in 9 mi East 20.1 mph - -   Scattered Clouds
3:20 PM 71.6 °F 44.6 °F 38% 30.01 in 6.2 mi East 20.7 mph - N/A   Mostly Cloudy
3:30 PM 72 °F 44 °F 26% 29.96 in 9 mi East 20.1 mph - -   Scattered Clouds
4:20 PM 71.6 °F 44.6 °F 38% 30.01 in 6.2 mi East 18.4 mph - N/A   Mostly Cloudy
4:30 PM 71 °F 44 °F 27% 29.98 in 9 mi East 17.9 mph - -   Scattered Clouds
5:20 PM 69.8 °F 44.6 °F 40% 30.01 in 6.2 mi East 16.1 mph - N/A   Mostly Cloudy
5:30 PM 69 °F 44 °F 30% 29.98 in 9 mi East 15.7 mph - -   Scattered Clouds
6:20 PM 68.0 °F 44.6 °F 43% 30.01 in 6.2 mi ENE 12.7 mph - N/A   Mostly Cloudy
6:30 PM 67 °F 44 °F 32% 29.98 in 7 mi ENE 13.4 mph - -   Partly Cloudy
7:20 PM 68.0 °F 44.6 °F 43% 30.04 in 6.2 mi East 10.4 mph - N/A   Mostly Cloudy
7:30 PM 67 °F 45 °F 33% 30.00 in 7 mi East 11.2 mph - -   Mostly Cloudy
8:20 PM 64.4 °F 48.2 °F 56% 30.06 in 6.2 mi South 6.9 mph - N/A   Mostly Cloudy
8:30 PM 64 °F 48 °F 46% 30.04 in 7 mi South 6.7 mph - -   Mostly Cloudy
9:20 PM 64.4 °F 46.4 °F 52% 30.06 in 6.2 mi WSW 8.1 mph - N/A   Mostly Cloudy
9:30 PM 64 °F 47 °F 42% 30.05 in 7 mi WSW 8.9 mph - - Rain Light Rain
10:20 PM 64.4 °F 46.4 °F 52% 30.06 in 6.2 mi ESE 1.2 mph - N/A   Mostly Cloudy
10:30 PM 64 °F 46 °F 41% 30.04 in 7 mi ESE 2.2 mph - -   Partly Cloudy
11:20 PM 64.4 °F 46.4 °F 52% 30.04 in 6.2 mi East 2.3 mph - N/A   Mostly Cloudy
11:30 PM 64 °F 47 °F 43% 30.03 in 7 mi East 2.2 mph - -   Partly Cloudy